Regional Weather Roundup
Issued by NWS

Home | Current Version | Previous Version | Text Only | Print | Product List | Glossary On
Versions: 1 2 3 4 5 6 7 8 9 10 11 12 13 14 15 16 17 18 19 20 21 22 23 24 25 26 27 28 29 30 31 32 33 34 35 36 37 38 39 40 41 42 43 44 45 46 47 48 49 50
000
ASUS43 KMKX 240000
RWRWI

WISCONSIN REGIONAL WEATHER ROUNDUP
NATIONAL WEATHER SERVICE MILWAUKEE/SULLIVAN WI
700 PM CDT WED APR 23 2014

NOTE: "FAIR" INDICATES FEW OR NO CLOUDS BELOW 12,000 FEET WITH NO
SIGNIFICANT WEATHER AND/OR OBSTRUCTIONS TO VISIBILITY.

WIZ001-002-006>008-014>016-023>028-240100-
NORTHWEST WISCONSIN

CITY           SKY/WX    TMP DP  RH WIND       PRES   REMARKS
SUPERIOR ARPT  CLOUDY    36  30  78 NE9       30.03S WCI  29
ASHLAND        CLOUDY    36  30  79 N8        30.03F WCI  30
6HR MIN TEMP:  36; 6HR MAX TEMP:  51;

HAYWARD        CLOUDY    49  24  37 S8        29.99F
6HR MIN TEMP:  49; 6HR MAX TEMP:  53;

SIREN          CLOUDY    49  24  37 SE8       29.99R
RICE LAKE      CLOUDY    49  25  38 SE12      30.01F
LADYSMITH      CLOUDY    50  26  38 SE10      30.04F
EAU CLAIRE     NOT AVBL
MENOMONIE      DRIZZLE   42  38  84 E9        30.00F
NEW RICHMOND   DRIZZLE   41  37  86 E7        29.98S
OSCEOLA        LGT RAIN  40  39  94 E8        30.00F
$$

WIZ003>005-009-010-017-018-240100-
NORTH CENTRAL WISCONSIN

CITY           SKY/WX    TMP DP  RH WIND       PRES   REMARKS
WOODRUFF       CLOUDY    52  20  28 S7        30.03F
RHINELANDER    CLOUDY    50  22  33 S9        30.05F
6HR MIN TEMP:  47; 6HR MAX TEMP:  53;

EAGLE RIVER    CLOUDY    51  15  24 SE3       30.04F
LAND O LAKES   CLOUDY    52  18  26 S5        30.05S
PHILLIPS       CLOUDY    49  26  40 S9        30.02F
TOMAHAWK       CLOUDY    49  23  36 SE5       30.04F
MEDFORD        CLOUDY    47  23  39 SE8       30.03F
MERRILL        CLOUDY    49  25  38 S8        30.06F
$$

WIZ029-030-035-036-043>047-240100-
CENTRAL WISCONSIN

CITY           SKY/WX    TMP DP  RH WIND       PRES   REMARKS
WAUSAU         CLOUDY    48  23  37 SE9       30.05F
6HR MIN TEMP:  48; 6HR MAX TEMP:  52;

MOSINEE        CLEAR     46  25  42 SE9       30.07F
MARSHFIELD     CLOUDY    48  25  40 SE13      30.03F
6HR MIN TEMP:  48; 6HR MAX TEMP:  51;

STEVENS POINT  CLOUDY    46  23  40 E8        30.07F
WAUPACA        CLOUDY    52  25  35 SE8       30.10F
WAUTOMA        NOT AVBL
WISC RAPIDS    CLOUDY    49  24  37 E12       30.06F
6HR MIN TEMP:  49; 6HR MAX TEMP:  54;

CAMP DOUGLAS   NOT AVBL
$$

WIZ011>013-019>022-031-037>040-048>050-240100-
NORTHEAST WISCONSIN

CITY           SKY/WX    TMP DP  RH WIND       PRES   REMARKS
ANTIGO         CLOUDY    46  23  40 SE12      30.08S
STURGEON BAY   MOCLDY    41  10  28 S5        30.14S
6HR MIN TEMP:  41; 6HR MAX TEMP:  46;

GREEN BAY      CLOUDY    45  13  27 SE7       30.13S
6HR MIN TEMP:  45; 6HR MAX TEMP:  50;

MANITOWOC      NOT AVBL
APPLETON       MOCLDY    46  25  42 SE8       30.11F
CLINTONVILLE   CLOUDY    50  21  32 E3        30.11S
OSHKOSH        CLOUDY    46  25  43 E9        30.11S
6HR MIN TEMP:  46; 6HR MAX TEMP:  51;

$$

WIZ032>034-041-042-053>061-240100-
SOUTHWEST WISCONSIN

CITY           SKY/WX    TMP DP  RH WIND       PRES   REMARKS
LA CROSSE      CLOUDY    46  36  68 E9        29.98F
6HR MIN TEMP:  45; 6HR MAX TEMP:  53; 6HR PCP:  0.01;

SPARTA         RAIN      42  38  86 E10       30.04F
VIROQUA        CLOUDY    44  33  65 E18       29.99F
BOSCOBEL       CLOUDY    54  25  32 E12G17    30.00F
6HR MIN TEMP:  52; 6HR MAX TEMP:  56;

PRAIRIE DU CHI CLOUDY    51  30  43 E14       29.97F
PLATTEVILLE    FAIR      52  29  42 SE13      30.01F
$$

WIZ056-057-062-063-064-067-068-240100-
SOUTH CENTRAL WISCONSIN

CITY           SKY/WX    TMP DP  RH WIND       PRES   REMARKS
BARABOO/DELLS  DRIZZLE   48  32  52 S9        30.07S
LONE ROCK      NOT AVBL
WATERTOWN      CLOUDY    47  23  38 E10       30.10R
MADISON        LGT RAIN  50  32  50 SE9G20    30.08S
6HR MIN TEMP:  50; 6HR MAX TEMP:  57; 6HR PCP: TRACE;

MIDDLETON      CLOUDY    53  26  35 E8        30.07F
MONROE         CLOUDY    51  26  38 E12       30.04F
6HR MIN TEMP:  51; 6HR MAX TEMP:  55;

JANESVILLE     MOCLDY    52  25  35 SE10      30.08S
$$

WIZ051-052-058>065-066-070>072-240100-
SOUTHEAST WISCONSIN

CITY           SKY/WX    TMP DP  RH WIND       PRES   REMARKS
MILWAUKEE      CLOUDY    40  20  44 NE6       30.14S
6HR MIN TEMP:  40; 6HR MAX TEMP:  45;

WAUKESHA       CLOUDY    43  18  36 E6        30.13S
MILWAUKEE/TIMM CLEAR     43  12  28 NE5       30.13F
RACINE         CLOUDY    40  21  46 NE5       30.14F
6HR MIN TEMP:  40; 6HR MAX TEMP:  46;

BURLINGTON     CLOUDY    44  22  42 E8        30.11F
KENOSHA        CLOUDY    42  22  44 E8        30.12F
6HR MIN TEMP:  42; 6HR MAX TEMP:  48;

FOND DU LAC    CLOUDY    47  22  37 SE9       30.11S
6HR MIN TEMP:  47; 6HR MAX TEMP:  53;

SHEBOYGAN      CLOUDY    41  13  31 NE5       30.14S
6HR MIN TEMP:  41; 6HR MAX TEMP:  48;

WEST BEND      CLOUDY    43  18  36 E5        30.12S
JUNEAU         CLOUDY    47  15  27 E10       30.11S
$$

LSZ147-162-240100-
LAKE SUPERIOR

STATION/POSITION TIME  TEMP    WIND        PRES    WAVE
                       AIR SEA DIR/SP/G            HT/PER
                 (UTC) (F)     (DEG/KT/KT) (MB)    (FT/S)
DEVILS ISLAND    2300   36      80/  7/  8 1018.6F
PORT WING        2300   37      40/  9/ 10 1016.9
SAXON HARBOR     2300           CALM  /  2 1017.3F
$$

LMZ867-665-643>646-240100-
LAKE MICHIGAN

STATION/POSITION TIME  TEMP    WIND        PRES    WAVE
                       AIR SEA DIR/SP/G            HT/PER
                 (UTC) (F)     (DEG/KT/KT) (MB)    (FT/S)
NORTHPORT PIER   2300   42     170/  7/  9 1020.7S
SISTER BAY       2308   46     160/  7/ 10   N/A
KEWAUNEE LAKESHO 2300   38      30/  4/  4 1021.5F
SHEBOYGAN LAKESH 2300   38      10/  4/  4 1021.5F
PORT WASHINGTON  2300   39      90/  1/  2 1021.3S
MILWAUKEE LAKESH 2300   37      60/  5/  6   N/A
KENOSHA   LAKESH 2300   38      20/  6/  8   N/A
$$

TC  - TEMPERATURE IN CELSIUS
VSB - VISIBILITY IN STATUTE MILES
WCI - WIND CHILL INDEX
HX  - HEAT INDEX




USA.gov is the U.S. government's official web portal to all federal, state and local government web resources and services.